| time (UTC) | temp F | wind direction | speed MPH | gust MPH | rain 1hr in | rain 24hr in | rain mn in | humidity % | barometer mb |
| 20260506190046 | 62 | 224 | 5.0 | 12.0 | 0.00 | 0.00 | 0.00 | 21 | 1011.6 |
| 20260506184544 | 62 | 190 | 2.0 | 6.0 | 0.00 | 0.00 | 0.00 | 21 | 1012.0 |
| 20260506183041 | 62 | 190 | 2.0 | 9.0 | 0.00 | 0.00 | 0.00 | 20 | 1012.4 |
| 20260506181549 | 60 | 190 | 4.0 | 13.0 | 0.00 | 0.00 | 0.00 | 19 | 1012.5 |
| 20260506180043 | 60 | 190 | 1.0 | 8.0 | 0.00 | 0.00 | 0.00 | 19 | 1012.8 |
| 20260506174548 | 59 | 224 | 4.0 | 9.0 | 0.00 | 0.00 | 0.00 | 20 | 1013.2 |
| 20260506173056 | 57 | 190 | 4.0 | 9.0 | 0.00 | 0.00 | 0.00 | 20 | 1013.4 |
| 20260506171549 | 56 | 190 | 5.0 | 10.0 | 0.00 | 0.00 | 0.00 | 22 | 1013.9 |
| 20260506170042 | 55 | 190 | 4.0 | 13.0 | 0.00 | 0.00 | 0.00 | 26 | 1014.1 |
| 20260506164605 | 53 | 190 | 2.0 | 9.0 | 0.00 | 0.00 | 0.00 | 31 | 1014.2 |
| 20260506163047 | 52 | 190 | 4.0 | 7.0 | 0.00 | 0.00 | 0.00 | 33 | 1014.4 |
| 20260506161546 | 51 | 190 | 3.0 | 8.0 | 0.00 | 0.00 | 0.00 | 37 | 1014.6 |
| 20260506160050 | 49 | 190 | 4.0 | 6.0 | 0.00 | 0.00 | 0.00 | 41 | 1015.0 |
| 20260506154551 | 47 | 190 | 4.0 | 8.0 | 0.00 | 0.00 | 0.00 | 44 | 1015.3 |
| 20260506153045 | 45 | 190 | 2.0 | 5.0 | 0.00 | 0.00 | 0.00 | 45 | 1015.6 |
| 20260506151541 | 43 | 190 | 1.0 | 4.0 | 0.00 | 0.00 | 0.00 | 47 | 1015.7 |
| 20260506150047 | 42 | 0 | 1.0 | 2.0 | 0.00 | 0.00 | 0.00 | 47 | 1016.0 |
| 20260506144546 | 40 | 190 | 1.0 | 4.0 | 0.00 | 0.00 | 0.00 | 47 | 1016.2 |
| 20260506143049 | 40 | 190 | 0.0 | 2.0 | 0.00 | 0.00 | 0.00 | 46 | 1016.4 |
| 20260506141606 | 38 | 190 | 1.0 | 2.0 | 0.00 | 0.00 | 0.00 | 46 | 1016.4 |
| 20260506140048 | 36 | 0 | 0.0 | 1.0 | 0.00 | 0.00 | 0.00 | 48 | 1016.6 |
| 20260506134545 | 34 | 0 | 0.0 | 0.0 | 0.00 | 0.00 | 0.00 | 48 | 1016.6 |
| 20260506133046 | 30 | 0 | 0.0 | 0.0 | 0.00 | 0.00 | 0.00 | 56 | 1016.6 |
| 20260506131544 | 23 | 0 | 0.0 | 1.0 | 0.00 | 0.00 | 0.00 | 61 | 1016.6 |
| 20260506130042 | 20 | 190 | 0.0 | 4.0 | 0.00 | 0.00 | 0.00 | 64 | 1016.8 |
| 20260506124551 | 18 | 224 | 1.0 | 3.0 | 0.00 | 0.00 | 0.00 | 65 | 1017.0 |
| 20260506123049 | 18 | 0 | 0.0 | 0.0 | 0.00 | 0.00 | 0.00 | 65 | 1017.0 |
| 20260506121555 | 16 | 0 | 0.0 | 0.0 | 0.00 | 0.00 | 0.00 | 68 | 1017.1 |
| 20260506120107 | 15 | 0 | 0.0 | 0.0 | 0.00 | 0.00 | 0.00 | 67 | 1017.2 |
| 20260506114544 | 15 | 0 | 0.0 | 0.0 | 0.00 | 0.00 | 0.00 | 66 | 1017.2 |
| 20260506113040 | 16 | 0 | 0.0 | 0.0 | 0.00 | 0.00 | 0.00 | 65 | 1017.2 |
| 20260506111540 | 16 | 0 | 0.0 | 0.0 | 0.00 | 0.00 | 0.00 | 65 | 1017.3 |
| 20260506110048 | 17 | 0 | 0.0 | 0.0 | 0.00 | 0.00 | 0.00 | 65 | 1017.6 |
| 20260506104547 | 17 | 0 | 0.0 | 0.0 | 0.00 | 0.00 | 0.00 | 68 | 1017.7 |
| 20260506103043 | 18 | 0 | 0.0 | 0.0 | 0.00 | 0.00 | 0.00 | 65 | 1017.7 |
| 20260506101542 | 17 | 0 | 0.0 | 0.0 | 0.00 | 0.00 | 0.00 | 64 | 1017.9 |
| 20260506100046 | 17 | 0 | 0.0 | 0.0 | 0.00 | 0.00 | 0.00 | 65 | 1018.1 |
| 20260506094545 | 18 | 0 | 0.0 | 0.0 | 0.00 | 0.00 | 0.00 | 63 | 1018.0 |
| 20260506093049 | 18 | 0 | 0.0 | 1.0 | 0.00 | 0.00 | 0.00 | 64 | 1018.1 |
| 20260506091547 | 18 | 0 | 0.0 | 1.0 | 0.00 | 0.00 | 0.00 | 64 | 1018.4 |
| 20260506090046 | 17 | 0 | 0.0 | 0.0 | 0.00 | 0.00 | 0.00 | 63 | 1018.4 |
| 20260506084548 | 19 | 0 | 0.0 | 2.0 | 0.00 | 0.00 | 0.00 | 59 | 1018.5 |
| 20260506083047 | 20 | 190 | 1.0 | 3.0 | 0.00 | 0.00 | 0.00 | 61 | 1018.5 |
| 20260506081552 | 20 | 190 | 1.0 | 2.0 | 0.00 | 0.00 | 0.00 | 61 | 1018.7 |
| 20260506073057 | 22 | 0 | 0.0 | 2.0 | 0.00 | 0.00 | 0.00 | 55 | 1019.2 |
| 20260506071549 | 23 | 190 | 0.0 | 1.0 | 0.00 | 0.00 | 0.00 | 55 | 1019.0 |
| 20260506070108 | 24 | 224 | 2.0 | 3.0 | 0.00 | 0.00 | 0.00 | 55 | 1019.1 |
| 20260506061543 | 29 | 0 | 0.0 | 2.0 | 0.00 | 0.00 | 0.00 | 48 | 1019.3 |
| 20260506044551 | 33 | 0 | 0.0 | 1.0 | 0.00 | 0.00 | 0.00 | 44 | 1019.3 |
| 20260506043050 | 33 | 44 | 0.0 | 1.0 | 0.00 | 0.00 | 0.00 | 44 | 1019.4 |
| 20260506041552 | 34 | 190 | 0.0 | 1.0 | 0.00 | 0.00 | 0.00 | 43 | 1019.4 |
| 20260506040050 | 34 | 190 | 0.0 | 1.0 | 0.00 | 0.00 | 0.00 | 41 | 1019.5 |
| 20260506034543 | 35 | 44 | 0.0 | 2.0 | 0.00 | 0.00 | 0.00 | 41 | 1019.3 |
| 20260506033043 | 36 | 190 | 0.0 | 1.0 | 0.00 | 0.00 | 0.00 | 40 | 1019.3 |
| 20260506031555 | 37 | 190 | 0.0 | 1.0 | 0.00 | 0.00 | 0.00 | 39 | 1019.3 |
| 20260506030108 | 39 | 190 | 0.0 | 1.0 | 0.00 | 0.00 | 0.00 | 36 | 1019.3 |
| 20260506024550 | 42 | 190 | 0.0 | 3.0 | 0.00 | 0.00 | 0.00 | 34 | 1019.0 |
| 20260506023046 | 44 | 190 | 1.0 | 4.0 | 0.00 | 0.00 | 0.00 | 33 | 1019.0 |
| 20260506021543 | 45 | 190 | 1.0 | 5.0 | 0.00 | 0.00 | 0.00 | 31 | 1018.9 |
| 20260506020041 | 47 | 190 | 1.0 | 6.0 | 0.00 | 0.00 | 0.00 | 31 | 1018.8 |
| 20260506014542 | 48 | 190 | 2.0 | 6.0 | 0.00 | 0.00 | 0.00 | 29 | 1018.8 |
| 20260506013050 | 48 | 190 | 3.0 | 7.0 | 0.00 | 0.00 | 0.00 | 29 | 1018.7 |
| 20260506011553 | 49 | 224 | 3.0 | 8.0 | 0.00 | 0.00 | 0.00 | 29 | 1018.5 |
| 20260506010043 | 49 | 190 | 2.0 | 6.0 | 0.00 | 0.00 | 0.00 | 29 | 1018.5 |
| 20260506004622 | 50 | 190 | 4.0 | 11.0 | 0.00 | 0.00 | 0.00 | 29 | 1018.5 |
| 20260506003042 | 50 | 190 | 4.0 | 8.0 | 0.00 | 0.00 | 0.00 | 29 | 1018.4 |
| 20260506001549 | 50 | 190 | 3.0 | 15.0 | 0.00 | 0.00 | 0.00 | 29 | 1018.4 |
| 20260506000050 | 51 | 190 | 3.0 | 9.0 | 0.00 | 0.00 | 0.00 | 28 | 1018.5 |
| 20260505234609 | 51 | 190 | 4.0 | 10.0 | 0.00 | 0.00 | 0.00 | 28 | 1018.5 |
| 20260505233051 | 52 | 190 | 4.0 | 9.0 | 0.00 | 0.00 | 0.00 | 28 | 1018.4 |
| 20260505231543 | 51 | 190 | 5.0 | 10.0 | 0.00 | 0.00 | 0.00 | 28 | 1018.4 |
| 20260505230050 | 50 | 190 | 5.0 | 12.0 | 0.00 | 0.00 | 0.00 | 30 | 1018.4 |
| 20260505224546 | 49 | 190 | 5.0 | 13.0 | 0.00 | 0.00 | 0.00 | 31 | 1018.3 |
| 20260505223058 | 50 | 190 | 6.0 | 17.0 | 0.00 | 0.00 | 0.00 | 29 | 1018.4 |
| 20260505221558 | 52 | 190 | 4.0 | 10.0 | 0.00 | 0.00 | 0.00 | 27 | 1018.3 |
| 20260505220050 | 52 | 190 | 3.0 | 12.0 | 0.00 | 0.00 | 0.00 | 31 | 1018.4 |
| 20260505214604 | 51 | 224 | 3.0 | 14.0 | 0.00 | 0.00 | 0.00 | 31 | 1018.4 |
| 20260505213046 | 50 | 224 | 2.0 | 12.0 | 0.00 | 0.00 | 0.00 | 31 | 1018.4 |
| 20260505211541 | 51 | 224 | 4.0 | 15.0 | 0.00 | 0.00 | 0.00 | 32 | 1018.5 |
| 20260505210046 | 50 | 190 | 4.0 | 11.0 | 0.00 | 0.00 | 0.00 | 32 | 1018.6 |
| 20260505204550 | 51 | 190 | 5.0 | 14.0 | 0.00 | 0.00 | 0.00 | 33 | 1018.6 |
| 20260505203044 | 50 | 190 | 3.0 | 13.0 | 0.00 | 0.00 | 0.00 | 32 | 1018.7 |
| 20260505201542 | 50 | 190 | 6.0 | 10.0 | 0.00 | 0.00 | 0.00 | 33 | 1018.8 |
| 20260505200100 | 49 | 190 | 6.0 | 13.0 | 0.00 | 0.00 | 0.00 | 32 | 1018.8 |
| 20260505194555 | 51 | 190 | 3.0 | 11.0 | 0.00 | 0.00 | 0.00 | 32 | 1018.8 |
| 20260505193046 | 48 | 190 | 3.0 | 18.0 | 0.00 | 0.00 | 0.00 | 35 | 1018.8 |
| 20260505191547 | 48 | 190 | 5.0 | 14.0 | 0.00 | 0.00 | 0.00 | 35 | 1018.9 |